St. Francis, KS

4:55 PM CST on December 13, 2017 (GMT -0600)
Cheyenne County Municipal

Weather History for KSYF - February, 2013

Change the Weather History Date:

Friday, February 8, 2013

  Actual Average Record
Temperature  
Mean Temperature 42 °F -  
Max Temperature 58 °F 43 °F 68 °F (2015)
Min Temperature 27 °F 13 °F 9 °F (2014)
Degree Days  
Heating Degree Days 22    
Moisture  
Dew Point 18 °F    
Average Humidity 40    
Maximum Humidity 66    
Minimum Humidity 22    
Precipitation  
Precipitation 0.00 in - - ()
Sea Level Pressure  
Sea Level Pressure 29.95 in    
Wind  
Wind Speed 18 mph (South)    
Max Wind Speed 32 mph    
Max Gust Speed 41 mph    
Visibility 10 miles    
Events      
Averages and records for this station are not official NWS values.
T = Trace of Precipitation, MM = Missing Value Source: NWS Daily Summary

Daily Weather History Graph

Daily Weather History Graph

Search for Another Location

Airport or City:

Trip Planner

Search our weather history database for the weather conditions in past years. The results will help you decide how hot, cold, wet, or windy it might be!

Date:

Astronomy

Feb. 08, 2013 Rise Set
Actual Time 7:47 AM CST 6:15 PM CST
Civil Twilight 7:19 AM CST 6:43 PM CST
Nautical Twilight 6:47 AM CST 7:15 PM CST
Astronomical Twilight 6:16 AM CST 7:47 PM CST
Moon 6:17 AM CST (2/8) 4:51 PM CST (2/8)
Length of Visible Light 11h 24m
Length of Day
10h 27m
Waning Crescent, 3% of the Moon is Illuminated
Feb 8
Waning Crescent
Feb 10
New
Feb 17
First Quarter
Feb 25
Full
Mar 4
Last Quarter

Hourly Weather History & Observations

Time (CST) Temp. Windchill Dew Point Humidity Pressure Visibility Wind Dir Wind Speed Gust Speed Precip Events Conditions
12:15 AM 32.0 °F 25.6 °F 14.9 °F 49% 30.13 in 10.0 mi South 6.9 mph - N/A   Clear
12:35 AM 34.2 °F 25.7 °F 14.4 °F 44% 30.13 in 10.0 mi South 11.5 mph - N/A   Clear
12:55 AM 31.3 °F 21.1 °F 14.4 °F 50% 30.13 in 10.0 mi South 13.8 mph - N/A   Clear
1:15 AM 31.1 °F 20.9 °F 14.4 °F 50% 30.13 in 10.0 mi South 13.8 mph - N/A   Clear
1:35 AM 31.8 °F 21.0 °F 14.4 °F 49% 30.12 in 10.0 mi South 16.1 mph - N/A   Clear
1:55 AM 31.1 °F 20.9 °F 14.0 °F 49% 30.12 in 10.0 mi South 13.8 mph - N/A   Clear
2:15 AM 29.3 °F 19.1 °F 14.4 °F 54% 30.12 in 10.0 mi South 12.7 mph - N/A   Clear
2:35 AM 30.0 °F 19.5 °F 14.4 °F 52% 30.12 in 10.0 mi South 13.8 mph - N/A   Clear
2:55 AM 29.3 °F 18.6 °F 14.4 °F 54% 30.11 in 10.0 mi South 13.8 mph - N/A   Clear
3:15 AM 30.2 °F 19.3 °F 14.4 °F 52% 30.10 in 10.0 mi South 15.0 mph - N/A   Clear
3:35 AM 30.0 °F 20.0 °F 14.9 °F 53% 30.10 in 10.0 mi South 12.7 mph - N/A   Clear
3:55 AM 30.7 °F 21.4 °F 15.8 °F 54% 30.09 in 10.0 mi South 11.5 mph - N/A   Clear
4:15 AM 31.1 °F 20.9 °F 17.6 °F 57% 30.08 in 10.0 mi South 13.8 mph - N/A   Clear
4:35 AM 32.0 °F 23.0 °F 18.5 °F 58% 30.07 in 10.0 mi South 11.5 mph - N/A   Clear
4:55 AM 32.0 °F 23.0 °F 18.5 °F 58% 30.07 in 10.0 mi South 11.5 mph - N/A   Clear
5:15 AM 31.3 °F 21.6 °F 17.8 °F 57% 30.06 in 10.0 mi South 12.7 mph - N/A   Clear
5:55 AM 28.2 °F 22.0 °F 16.7 °F 62% 30.06 in 10.0 mi South 5.8 mph - N/A   Clear
6:15 AM 27.5 °F - 16.9 °F 64% 30.05 in 10.0 mi Calm Calm - N/A   Clear
6:35 AM 27.0 °F 21.6 °F 17.1 °F 66% 30.05 in 10.0 mi SW 4.6 mph - N/A   Clear
6:55 AM 28.0 °F - 17.8 °F 65% 30.05 in 10.0 mi Calm Calm - N/A   Clear
7:15 AM 31.5 °F 21.8 °F 20.1 °F 63% 30.04 in 10.0 mi SSW 12.7 mph - N/A   Clear
7:35 AM 32.4 °F 21.7 °F 20.7 °F 62% 30.03 in 10.0 mi South 16.1 mph 20.7 mph N/A   Clear
7:55 AM 32.4 °F 22.5 °F 20.7 °F 62% 30.04 in 10.0 mi South 13.8 mph - N/A   Clear
8:15 AM 33.3 °F 22.8 °F 21.4 °F 62% 30.04 in 10.0 mi South 16.1 mph - N/A   Clear
8:35 AM 35.6 °F 24.2 °F 22.1 °F 58% 30.03 in 10.0 mi South 21.9 mph 25.3 mph N/A   Clear
8:55 AM 36.3 °F 25.5 °F 21.9 °F 56% 30.04 in 10.0 mi South 20.7 mph 26.5 mph N/A   Clear
9:15 AM 38.5 °F 28.6 °F 22.1 °F 52% 30.04 in 10.0 mi South 19.6 mph 26.5 mph N/A   Clear
9:35 AM 40.8 °F 31.7 °F 22.6 °F 48% 30.03 in 10.0 mi South 19.6 mph 25.3 mph N/A   Clear
9:55 AM 44.1 °F 36.5 °F 23.0 °F 43% 30.02 in 10.0 mi South 17.3 mph 23.0 mph N/A   Clear
10:15 AM 47.3 °F - 20.5 °F 35% 30.01 in 10.0 mi South 28.8 mph 34.5 mph N/A   Clear
10:35 AM 47.3 °F - 20.8 °F 35% 30.01 in 10.0 mi South 23.0 mph 29.9 mph N/A   Clear
10:55 AM 48.6 °F - 20.3 °F 33% 30.00 in 10.0 mi South 23.0 mph 28.8 mph N/A   Clear
11:15 AM 51.4 °F - 19.4 °F 28% 30.00 in 10.0 mi South 25.3 mph - N/A   Clear
11:35 AM 51.8 °F - 19.4 °F 28% 30.00 in 10.0 mi South 24.2 mph 31.1 mph N/A   Clear
11:55 AM 53.6 °F - 19.6 °F 26% 29.99 in 10.0 mi South 24.2 mph 33.4 mph N/A   Clear
12:15 PM 54.9 °F - 19.4 °F 25% 29.98 in 10.0 mi South 26.5 mph 34.5 mph N/A   Clear
12:35 PM 54.5 °F - 19.2 °F 25% 29.95 in 10.0 mi South 29.9 mph 38.0 mph N/A   Clear
12:55 PM 55.6 °F - 19.2 °F 24% 29.94 in 10.0 mi South 27.6 mph 35.7 mph N/A   Clear
1:15 PM 54.5 °F - 19.0 °F 25% 29.93 in 10.0 mi South 24.2 mph 35.7 mph N/A   Clear
1:35 PM 54.7 °F - 19.2 °F 25% 29.92 in 10.0 mi South 25.3 mph 34.5 mph N/A   Clear
1:55 PM 54.5 °F - 19.4 °F 25% 29.90 in 10.0 mi South 31.1 mph 36.8 mph N/A   Clear
2:15 PM 55.8 °F - 19.0 °F 24% 29.89 in 10.0 mi South 31.1 mph 41.4 mph N/A   Clear
2:35 PM 56.7 °F - 19.4 °F 23% 29.88 in 10.0 mi South 26.5 mph 38.0 mph N/A   Clear
2:55 PM 57.2 °F - 19.2 °F 23% 29.86 in 10.0 mi South 31.1 mph 39.1 mph N/A   Clear
3:15 PM 57.2 °F - 19.4 °F 23% 29.86 in 10.0 mi South 29.9 mph 39.1 mph N/A   Clear
3:35 PM 58.1 °F - 19.2 °F 22% 29.85 in 10.0 mi South 32.2 mph 41.4 mph N/A   Clear
3:55 PM 58.3 °F - 19.4 °F 22% 29.84 in 10.0 mi South 28.8 mph 39.1 mph N/A   Clear
4:15 PM 57.7 °F - 19.2 °F 22% 29.83 in 10.0 mi South 31.1 mph 39.1 mph N/A   Clear
4:35 PM 57.2 °F - 19.4 °F 23% 29.83 in 10.0 mi South 28.8 mph 41.4 mph N/A   Clear
4:55 PM 56.3 °F - 19.9 °F 24% 29.82 in 10.0 mi South 28.8 mph 40.3 mph N/A   Clear
5:15 PM 55.0 °F - 19.6 °F 25% 29.82 in 10.0 mi South 31.1 mph 41.4 mph N/A   Clear
5:35 PM 53.4 °F - 20.1 °F 27% 29.82 in 10.0 mi South 26.5 mph 32.2 mph N/A   Clear
5:55 PM 51.8 °F - 20.1 °F 29% 29.83 in 10.0 mi South 26.5 mph 35.7 mph N/A   Clear
6:15 PM 50.0 °F - 19.9 °F 31% 29.83 in 10.0 mi SSE 21.9 mph 32.2 mph N/A   Clear
6:35 PM 48.2 °F - 20.3 °F 33% 29.83 in 10.0 mi SSE 23.0 mph 32.2 mph N/A   Clear
6:55 PM 46.4 °F 38.7 °F 21.0 °F 37% 29.83 in 10.0 mi SSE 20.7 mph 25.3 mph N/A   Clear
7:15 PM 46.0 °F 37.8 °F 21.9 °F 39% 29.82 in 10.0 mi SSE 23.0 mph 27.6 mph N/A   Clear
7:35 PM 45.1 °F 37.1 °F 21.6 °F 39% 29.82 in 10.0 mi SSE 20.7 mph 28.8 mph N/A   Clear
7:55 PM 44.6 °F 34.9 °F 20.8 °F 39% 29.81 in 10.0 mi South 28.8 mph 35.7 mph N/A   Clear
8:15 PM 44.6 °F 35.1 °F 19.6 °F 37% 29.80 in 10.0 mi South 27.6 mph 36.8 mph N/A   Clear
8:35 PM 43.9 °F 33.9 °F 19.0 °F 37% 29.80 in 10.0 mi South 28.8 mph 36.8 mph N/A   Clear
8:55 PM 43.5 °F 33.5 °F 18.5 °F 37% 29.79 in 10.0 mi South 28.8 mph 33.4 mph N/A   Clear
9:15 PM 43.7 °F 33.3 °F 17.8 °F 35% 29.79 in 10.0 mi South 31.1 mph 36.8 mph N/A   Clear
9:35 PM 43.3 °F 33.0 °F 16.9 °F 35% 29.78 in 10.0 mi South 29.9 mph 35.7 mph N/A   Clear
9:55 PM 43.2 °F 33.0 °F 16.0 °F 33% 29.78 in 10.0 mi South 28.8 mph 38.0 mph N/A   Clear
10:15 PM 42.8 °F 32.7 °F 15.3 °F 33% 29.78 in 10.0 mi South 27.6 mph 38.0 mph N/A   Clear
10:35 PM 42.6 °F 32.2 °F 15.4 °F 33% 29.78 in 10.0 mi South 28.8 mph 34.5 mph N/A   Clear
10:55 PM 42.4 °F 32.4 °F 15.6 °F 34% 29.78 in 10.0 mi South 26.5 mph 39.1 mph N/A   Clear
11:15 PM 42.8 °F 32.5 °F 15.8 °F 34% 29.77 in 10.0 mi South 28.8 mph 41.4 mph N/A   Clear
11:35 PM 42.1 °F 31.5 °F 15.4 °F 34% 29.77 in 10.0 mi South 28.8 mph 38.0 mph N/A   Clear
11:55 PM 41.7 °F 31.0 °F 15.3 °F 34% 29.76 in 10.0 mi South 28.8 mph 39.1 mph N/A   Clear